Regional Weather Roundup
Issued by NWS

Home | Current Version | Previous Version | Graphics & Text | Print | Product List | Glossary On
Versions: 1 2 3 4 5 6 7 8 9 10 11 12 13 14 15 16 17 18 19 20 21 22 23 24 25 26 27 28 29 30 31 32 33 34 35 36 37 38 39 40 41 42 43 44 45 46 47 48 49 50
000
ASUS43 KMKX 300900
RWRWI

WISCONSIN REGIONAL WEATHER ROUNDUP
NATIONAL WEATHER SERVICE MILWAUKEE/SULLIVAN WI
400 AM CDT THU OCT 30 2014

NOTE: "FAIR" INDICATES FEW OR NO CLOUDS BELOW 12,000 FEET WITH NO
SIGNIFICANT WEATHER AND/OR OBSTRUCTIONS TO VISIBILITY.

WIZ001-002-006>008-014>016-023>028-301000-
NORTHWEST WISCONSIN

CITY           SKY/WX    TMP DP  RH WIND       PRES   REMARKS
SUPERIOR ARPT  CLOUDY    38  34  86 CALM      30.07S
ASHLAND        CLOUDY    39  32  76 W5        30.07S
HAYWARD        CLOUDY    38  32  79 CALM      30.05F
SIREN          CLOUDY    37  33  84 CALM      30.06F
CUMBERLAND     CLOUDY    32  32 100 CALM      30.06S
RICE LAKE      CLOUDY    34  32  94 CALM      30.07F
CHETEK         CLOUDY    33  32  96 CALM      30.06F
LADYSMITH      CLOUDY    35  33  90 CALM      30.08S
EAU CLAIRE     NOT AVBL
MENOMONIE      CLOUDY    36  34  93 CALM      30.08S
NEW RICHMOND   CLOUDY    36  34  92 CALM      30.06F
OSCEOLA        CLOUDY    37  35  94 S3        30.09F
$$

WIZ003>005-009-010-017-018-301000-
NORTH CENTRAL WISCONSIN

CITY           SKY/WX    TMP DP  RH WIND       PRES   REMARKS
MANITOWISH WTR CLOUDY    35  33  90 CALM      30.04S
ARBOR VITAE    CLOUDY    37  32  84 CALM      30.04F
WOODRUFF       CLOUDY    37  32  84 CALM      30.04F
RHINELANDER    CLOUDY    36  31  82 W5        30.05S WCI  32
EAGLE RIVER    CLOUDY    36  31  79 W5        30.03F WCI  32
LAND O LAKES   CLOUDY    36  32  85 W3        30.04F
PHILLIPS       CLOUDY    37  32  85 SW3       30.04S
TOMAHAWK       CLOUDY    36  32  87 CALM      30.06S
MEDFORD        MOCLDY    31  30  96 S3        30.05F
MERRILL        MOCLDY    31  31  98 CALM      30.06F
$$

WIZ029-030-035-036-043>047-301000-
CENTRAL WISCONSIN

CITY           SKY/WX    TMP DP  RH WIND       PRES   REMARKS
WAUSAU         MOCLDY    32  31  96 CALM      30.06S
MOSINEE        MOCLDY    32  32 100 CALM      30.07F
MARSHFIELD     CLOUDY    33  31  92 SW7       30.06F WCI  27
STEVENS POINT  MOCLDY    28  27  96 CALM      30.09S
WAUPACA        MOCLDY    32  32  98 CALM      30.09S
WAUTOMA        NOT AVBL
WISC RAPIDS    MOCLDY    31  30  96 CALM      30.09F
CAMP DOUGLAS   NOT AVBL
$$

WIZ011>013-019>022-031-037>040-048>050-301000-
NORTHEAST WISCONSIN

CITY           SKY/WX    TMP DP  RH WIND       PRES   REMARKS
ANTIGO         CLOUDY    33  32  96 CALM      30.06S
SHAWANO        PTCLDY    36  33  88 W5        30.09S WCI  32
OCONTO         CLOUDY    35  35 100 CALM      30.08S
STURGEON BAY   CLOUDY    41  34  75 W5        30.08S
GREEN BAY      PTCLDY    36  34  92 CALM      30.09S
MANITOWOC      NOT AVBL
APPLETON       MOCLDY    34  32  93 W7        30.09S WCI  28
CLINTONVILLE   MOCLDY    34  32  93 CALM      30.09S
OSHKOSH        MOCLDY    36  33  89 SW5       30.08F WCI  32
$$

WIZ032>034-041-042-053>061-301000-
SOUTHWEST WISCONSIN

CITY           SKY/WX    TMP DP  RH WIND       PRES   REMARKS
LA CROSSE      MOCLDY    37  33  85 SE5       30.08F WCI  33
SPARTA         MOCLDY    29  29  99 CALM      30.10F
VIROQUA        MOCLDY    36  32  88 S3        30.07F
BOSCOBEL       PTCLDY    30  27  88 CALM      30.11F FOG
PRAIRIE DU CHI PTCLDY    33  31  94 CALM      30.11F
PLATTEVILLE    PTCLDY    34  32  90 SE3       30.11F
$$

WIZ056-057-062-063-064-067-068-301000-
SOUTH CENTRAL WISCONSIN

CITY           SKY/WX    TMP DP  RH WIND       PRES   REMARKS
REEDSBURG      PTCLDY    31  30  98 CALM      30.10S
BARABOO/DELLS  PTCLDY    31  30  94 CALM      30.09S
LONE ROCK      NOT AVBL
MINERAL POINT  MOCLDY    36  32  87 SW3       30.10F
MADISON        CLOUDY    33  30  88 CALM      30.10F
MIDDLETON      CLOUDY    33  32  95 CALM      30.10F
WATERTOWN      MOCLDY    30  29  98 CALM      30.10S
MONROE         MOCLDY    34  32  93 SW6       30.10F WCI  29
JANESVILLE     MOCLDY    32  32 100 CALM      30.11F
$$

WIZ051-052-058>065-066-070>072-301000-
SOUTHEAST WISCONSIN

CITY           SKY/WX    TMP DP  RH WIND       PRES   REMARKS
MILWAUKEE      PTCLDY    36  30  79 CALM      30.11F
WAUKESHA       PTCLDY    30  28  93 CALM      30.12S
MILWAUKEE/TIMM CLEAR     32  30  93 CALM      30.11F
RACINE         PTCLDY    35  30  82 SW3       30.13F
BURLINGTON     PTCLDY    28  27  99 CALM      30.11F
KENOSHA        PTCLDY    32  30  92 S5        30.12F WCI  27
FOND DU LAC    PTCLDY    34  30  85 SW3       30.10S
SHEBOYGAN      PTCLDY    31  29  92 SW3       30.09F
WEST BEND      PTCLDY    32  30  93 CALM      30.10S
JUNEAU         MOCLDY    32  30  92 CALM      30.11S
$$

LSZ147-162-301000-
LAKE SUPERIOR

STATION/POSITION TIME  TEMP    WIND        PRES    WAVE
                       AIR SEA DIR/SP/G            HT/PER
                 (UTC) (F)     (DEG/KT/KT) (MB)    (FT/S)
W MID LAKE BUOY  0750   42 45  250/ 16/ 17 1017.3F   1/ 4
DEVILS ISLAND    0800   41     270/ 14/ 16 1018.3R
PORT WING        0800   40     210/  4/  9 1018.3S
SAXON HARBOR     0800   41        CALM     1017.6F
$$

LMZ867-665-643>646-301000-
LAKE MICHIGAN

STATION/POSITION TIME  TEMP    WIND        PRES    WAVE
                       AIR SEA DIR/SP/G            HT/PER
                 (UTC) (F)     (DEG/KT/KT) (MB)    (FT/S)
CHAMBERS ISLAND  0800   40     250/  1/  3 1018.6F
N MID LAKE BUOY  0750   43 51   10/  4/  6 1019.0F   1
NORTHPORT PIER   0800   42     190/  2/  3 1018.6S
KEWAUNEE LAKESHO 0800   42     280/  2/  3 1018.1R
SHEBOYGAN LAKESH 0800   40 50  260/  6/  7 1020.0F
PORT WASHINGTON  0800   38     270/  5/  7 1020.0F
ATWATER BUOY     0800   43     240/ 10/ 10 1020.8S
MILWAUKEE LAKESH 0800   42     290/  4/  5   N/A
S MID LAKE BUOY  0750   47 53  270/  6/  6 1020.4F   2/ 5
KENOSHA   LAKESH 0800   40     250/  7/  8 1020.0S
$$

TC  - TEMPERATURE IN CELSIUS
VSB - VISIBILITY IN STATUTE MILES
WCI - WIND CHILL INDEX
HX  - HEAT INDEX




USA.gov is the U.S. government's official web portal to all federal, state and local government web resources and services.